Time,TemperatureF,DewpointF,PressureIn,WindDirection,WindDirectionDegrees,WindSpeedMPH,WindSpeedGustMPH,Humidity,HourlyPrecipIn,Conditions,Clouds,dailyrainin,SoftwareType,DateUTC
2013-01-31 07:02:00,27.0,16.0,30.34,NNW,339,5.0,-999.0,62,-99.99,,,-99.99,,2013-01-31 14:02:00,
2013-01-31 07:21:00,27.0,16.0,30.34,North,350,5.0,-999.0,64,-99.99,,,-99.99,,2013-01-31 14:21:00,
2013-01-31 07:31:00,26.0,16.0,30.34,NW,323,4.0,-999.0,66,-99.99,,,-99.99,,2013-01-31 14:31:00,
2013-01-31 07:42:00,26.0,16.0,30.34,NW,323,4.0,-999.0,66,-99.99,,,-99.99,,2013-01-31 14:42:00,
2013-01-31 07:52:00,29.0,19.0,30.34,WNW,297,8.0,-999.0,65,-99.99,,,-99.99,,2013-01-31 14:52:00,
2013-01-31 08:02:00,29.0,16.0,30.35,WSW,242,6.0,-999.0,59,-99.99,,,-99.99,,2013-01-31 15:02:00,
2013-01-31 08:32:00,29.0,17.0,30.36,NW,325,4.0,-999.0,61,-99.99,,,-99.99,,2013-01-31 15:32:00,
2013-01-31 08:42:00,29.0,17.0,30.36,NW,325,4.0,-999.0,61,-99.99,,,-99.99,,2013-01-31 15:42:00,
2013-01-31 08:51:00,31.0,19.0,30.36,WNW,289,8.0,-999.0,60,-99.99,,,-99.99,,2013-01-31 15:51:00,
2013-01-31 09:03:00,34.0,19.0,30.36,NW,304,17.0,-999.0,53,-99.99,,,-99.99,,2013-01-31 16:03:00,
2013-01-31 09:21:00,33.0,19.0,30.37,North,355,5.0,-999.0,55,-99.99,,,-99.99,,2013-01-31 16:21:00,
2013-01-31 09:32:00,34.0,19.0,30.37,WNW,295,8.0,-999.0,53,-99.99,,,-99.99,,2013-01-31 16:32:00,
2013-01-31 09:41:00,34.0,19.0,30.37,WNW,295,8.0,-999.0,53,-99.99,,,-99.99,,2013-01-31 16:41:00,
2013-01-31 09:51:00,34.0,19.0,30.37,North,9,5.0,-999.0,54,-99.99,,,-99.99,,2013-01-31 16:51:00,
2013-01-31 10:02:00,35.0,19.0,30.37,NW,315,6.0,-999.0,52,-99.99,,,-99.99,,2013-01-31 17:02:00,
2013-01-31 10:31:00,39.0,20.0,30.37,WNW,292,9.0,-999.0,46,-99.99,,,-99.99,,2013-01-31 17:31:00,
2013-01-31 10:43:00,39.0,20.0,30.37,WNW,292,9.0,-999.0,46,-99.99,,,-99.99,,2013-01-31 17:43:00,
2013-01-31 10:53:00,40.0,18.0,30.37,WNW,287,15.0,-999.0,40,-99.99,,,-99.99,,2013-01-31 17:53:00,
2013-01-31 11:02:00,41.0,18.0,30.37,NW,316,19.0,-999.0,39,-99.99,,,-99.99,,2013-01-31 18:02:00,
2013-01-31 11:12:00,42.0,18.0,30.37,WNW,301,21.0,-999.0,38,-99.99,,,-99.99,,2013-01-31 18:12:00,
2013-01-31 11:31:00,42.0,18.0,30.37,WNW,300,20.0,-999.0,37,-99.99,,,-99.99,,2013-01-31 18:31:00,
2013-01-31 11:42:00,42.0,18.0,30.37,WNW,300,20.0,-999.0,37,-99.99,,,-99.99,,2013-01-31 18:42:00,
2013-01-31 11:52:00,43.0,18.0,30.37,West,281,17.0,-999.0,36,-99.99,,,-99.99,,2013-01-31 18:52:00,
2013-01-31 12:02:00,43.0,17.0,30.35,WNW,288,22.0,-999.0,35,-99.99,,,-99.99,,2013-01-31 19:02:00,
2013-01-31 12:21:00,43.0,17.0,30.34,WNW,295,16.0,-999.0,35,-99.99,,,-99.99,,2013-01-31 19:21:00,
2013-01-31 12:32:00,43.0,18.0,30.34,WNW,288,20.0,-999.0,36,-99.99,,,-99.99,,2013-01-31 19:32:00,
2013-01-31 12:42:00,43.0,18.0,30.34,WNW,288,20.0,-999.0,36,-99.99,,,-99.99,,2013-01-31 19:42:00,
2013-01-31 12:51:00,43.0,16.0,30.32,WNW,288,21.0,-999.0,33,-99.99,,,-99.99,,2013-01-31 19:51:00,
2013-01-31 13:01:00,44.0,17.0,30.30,WNW,296,21.0,-999.0,33,-99.99,,,-99.99,,2013-01-31 20:01:00,
2013-01-31 13:31:00,45.0,17.0,30.29,WNW,296,25.0,-999.0,32,-99.99,,,-99.99,,2013-01-31 20:31:00,
2013-01-31 13:41:00,45.0,17.0,30.29,WNW,296,25.0,-999.0,32,-99.99,,,-99.99,,2013-01-31 20:41:00,
2013-01-31 13:52:00,44.0,16.0,30.30,West,273,18.0,-999.0,32,-99.99,,,-99.99,,2013-01-31 20:52:00,
2013-01-31 14:02:00,45.0,17.0,30.30,SW,235,13.0,-999.0,32,-99.99,,,-99.99,,2013-01-31 21:02:00,
2013-01-31 14:11:00,45.0,17.0,30.30,SW,235,13.0,-999.0,32,-99.99,,,-99.99,,2013-01-31 21:11:00,
2013-01-31 14:21:00,44.0,16.0,30.30,WSW,256,13.0,-999.0,32,-99.99,,,-99.99,,2013-01-31 21:21:00,
2013-01-31 14:31:00,45.0,17.0,30.29,WNW,292,19.0,-999.0,32,-99.99,,,-99.99,,2013-01-31 21:31:00,
2013-01-31 14:42:00,45.0,17.0,30.29,WNW,292,19.0,-999.0,32,-99.99,,,-99.99,,2013-01-31 21:42:00,
2013-01-31 14:51:00,44.0,17.0,30.29,WNW,295,20.0,-999.0,33,-99.99,,,-99.99,,2013-01-31 21:51:00,
2013-01-31 15:02:00,44.0,17.0,30.28,WNW,294,22.0,-999.0,33,-99.99,,,-99.99,,2013-01-31 22:02:00,
2013-01-31 15:11:00,44.0,17.0,30.28,WNW,294,22.0,-999.0,33,-99.99,,,-99.99,,2013-01-31 22:11:00,
2013-01-31 15:21:00,44.0,17.0,30.29,West,279,19.0,-999.0,33,-99.99,,,-99.99,,2013-01-31 22:21:00,
2013-01-31 15:32:00,44.0,16.0,30.28,WNW,290,22.0,-999.0,32,-99.99,,,-99.99,,2013-01-31 22:32:00,
2013-01-31 15:42:00,44.0,16.0,30.28,WNW,290,22.0,-999.0,32,-99.99,,,-99.99,,2013-01-31 22:42:00,
2013-01-31 15:51:00,43.0,16.0,30.28,WNW,289,20.0,-999.0,33,-99.99,,,-99.99,,2013-01-31 22:51:00,
2013-01-31 16:02:00,44.0,17.0,30.28,West,279,21.0,-999.0,33,-99.99,,,-99.99,,2013-01-31 23:02:00,
2013-01-31 16:11:00,44.0,17.0,30.28,West,279,21.0,-999.0,33,-99.99,,,-99.99,,2013-01-31 23:11:00,
2013-01-31 16:21:00,43.0,17.0,30.28,West,265,19.0,-999.0,35,-99.99,,,-99.99,,2013-01-31 23:21:00,
2013-01-31 16:31:00,43.0,17.0,30.28,West,272,15.0,-999.0,34,-99.99,,,-99.99,,2013-01-31 23:31:00,
2013-01-31 16:41:00,43.0,17.0,30.28,West,272,15.0,-999.0,34,-99.99,,,-99.99,,2013-01-31 23:41:00,
2013-01-31 16:52:00,42.0,16.0,30.28,West,275,17.0,-999.0,35,-99.99,,,-99.99,,2013-01-31 23:52:00,
2013-01-31 17:01:00,42.0,17.0,30.28,WNW,282,17.0,-999.0,36,-99.99,,,-99.99,,2013-02-01 00:01:00,
2013-01-31 17:11:00,42.0,17.0,30.28,WNW,282,17.0,-999.0,36,-99.99,,,-99.99,,2013-02-01 00:11:00,
2013-01-31 17:21:00,42.0,17.0,30.29,WSW,243,15.0,-999.0,36,-99.99,,,-99.99,,2013-02-01 00:21:00,
2013-01-31 17:31:00,41.0,17.0,30.29,WSW,241,15.0,-999.0,37,-99.99,,,-99.99,,2013-02-01 00:31:00,
2013-01-31 17:42:00,41.0,17.0,30.29,WSW,241,15.0,-999.0,37,-99.99,,,-99.99,,2013-02-01 00:42:00,
2013-01-31 17:51:00,41.0,16.0,30.29,SW,225,21.0,-999.0,36,-99.99,,,-99.99,,2013-02-01 00:51:00,
2013-01-31 18:01:00,40.0,16.0,30.29,SSW,208,16.0,-999.0,38,-99.99,,,-99.99,,2013-02-01 01:01:00,
2013-01-31 18:11:00,39.0,17.0,30.30,West,277,11.0,-999.0,41,-99.99,,,-99.99,,2013-02-01 01:11:00,
2013-01-31 18:21:00,39.0,17.0,30.30,West,277,11.0,-999.0,41,-99.99,,,-99.99,,2013-02-01 01:21:00,
2013-01-31 18:31:00,38.0,17.0,30.29,WNW,290,13.0,-999.0,42,-99.99,,,-99.99,,2013-02-01 01:31:00,
2013-01-31 18:41:00,38.0,17.0,30.29,WNW,290,13.0,-999.0,42,-99.99,,,-99.99,,2013-02-01 01:41:00,
2013-01-31 18:51:00,38.0,16.0,30.28,WNW,294,22.0,-999.0,41,-99.99,,,-99.99,,2013-02-01 01:51:00,
2013-01-31 19:01:00,38.0,17.0,30.28,WNW,292,24.0,-999.0,42,-99.99,,,-99.99,,2013-02-01 02:01:00,
2013-01-31 19:11:00,38.0,17.0,30.28,WNW,292,24.0,-999.0,42,-99.99,,,-99.99,,2013-02-01 02:11:00,
2013-01-31 19:21:00,38.0,18.0,30.29,West,279,22.0,-999.0,43,-99.99,,,-99.99,,2013-02-01 02:21:00,
2013-01-31 19:31:00,37.0,18.0,30.28,West,275,22.0,-999.0,45,-99.99,,,-99.99,,2013-02-01 02:31:00,
2013-01-31 19:41:00,37.0,18.0,30.28,West,275,22.0,-999.0,45,-99.99,,,-99.99,,2013-02-01 02:41:00,
2013-01-31 19:52:00,37.0,17.0,30.27,West,277,25.0,-999.0,44,-99.99,,,-99.99,,2013-02-01 02:52:00,
2013-01-31 20:01:00,37.0,17.0,30.28,West,277,25.0,-999.0,44,-99.99,,,-99.99,,2013-02-01 03:01:00,
2013-01-31 20:11:00,37.0,17.0,30.28,West,277,25.0,-999.0,44,-99.99,,,-99.99,,2013-02-01 03:11:00,
2013-01-31 20:21:00,37.0,18.0,30.29,West,267,22.0,-999.0,45,-99.99,,,-99.99,,2013-02-01 03:21:00,
2013-01-31 20:32:00,37.0,18.0,30.29,West,278,23.0,-999.0,45,-99.99,,,-99.99,,2013-02-01 03:32:00,
2013-01-31 20:41:00,37.0,18.0,30.29,West,278,23.0,-999.0,45,-99.99,,,-99.99,,2013-02-01 03:41:00,
2013-01-31 20:51:00,37.0,17.0,30.28,WNW,297,25.0,-999.0,44,-99.99,,,-99.99,,2013-02-01 03:51:00,
2013-01-31 21:02:00,36.0,18.0,30.28,West,274,20.0,-999.0,47,-99.99,,,-99.99,,2013-02-01 04:02:00,
2013-01-31 21:11:00,36.0,18.0,30.28,West,274,20.0,-999.0,47,-99.99,,,-99.99,,2013-02-01 04:11:00,
2013-01-31 21:21:00,35.0,17.0,30.28,WNW,300,18.0,-999.0,47,-99.99,,,-99.99,,2013-02-01 04:21:00,
2013-01-31 21:31:00,36.0,17.0,30.28,West,279,16.0,-999.0,46,-99.99,,,-99.99,,2013-02-01 04:31:00,
2013-01-31 21:41:00,36.0,17.0,30.28,West,279,16.0,-999.0,46,-99.99,,,-99.99,,2013-02-01 04:41:00,
2013-01-31 21:51:00,36.0,17.0,30.28,West,279,16.0,-999.0,46,-99.99,,,-99.99,,2013-02-01 04:51:00,
2013-01-31 22:03:00,36.0,18.0,30.28,West,271,17.0,-999.0,48,-99.99,,,-99.99,,2013-02-01 05:03:00,
2013-01-31 22:11:00,36.0,18.0,30.28,West,271,17.0,-999.0,48,-99.99,,,-99.99,,2013-02-01 05:11:00,
2013-01-31 22:22:00,36.0,18.0,30.28,West,265,16.0,-999.0,48,-99.99,,,-99.99,,2013-02-01 05:22:00,
2013-01-31 22:31:00,36.0,18.0,30.27,West,274,14.0,-999.0,48,-99.99,,,-99.99,,2013-02-01 05:31:00,
2013-01-31 22:41:00,36.0,18.0,30.27,West,274,14.0,-999.0,48,-99.99,,,-99.99,,2013-02-01 05:41:00,
2013-01-31 22:52:00,35.0,18.0,30.28,West,263,11.0,-999.0,49,-99.99,,,-99.99,,2013-02-01 05:52:00,
2013-01-31 23:02:00,36.0,19.0,30.28,West,267,14.0,-999.0,49,-99.99,,,-99.99,,2013-02-01 06:02:00,
2013-01-31 23:11:00,36.0,19.0,30.28,West,267,14.0,-999.0,49,-99.99,,,-99.99,,2013-02-01 06:11:00,
2013-01-31 23:21:00,36.0,19.0,30.28,West,267,14.0,-999.0,49,-99.99,,,-99.99,,2013-02-01 06:21:00,
2013-01-31 23:32:00,36.0,19.0,30.28,West,265,12.0,-999.0,49,-99.99,,,-99.99,,2013-02-01 06:32:00,
2013-01-31 23:41:00,36.0,19.0,30.28,West,265,12.0,-999.0,49,-99.99,,,-99.99,,2013-02-01 06:41:00,
2013-01-31 23:52:00,34.0,18.0,30.29,SW,215,3.0,-999.0,51,-99.99,,,-99.99,,2013-02-01 06:52:00,